Weather History for Grafton, ND

Change the Weather History Date:

Thursday, November 1, 2012

  Actual Average Record
Temperature  
Mean Temperature 29 °F -  
Max Temperature 32 °F 47 °F 71 °F (1958)
Min Temperature 26 °F 28 °F 1 °F (1951)
Degree Days  
Heating Degree Days 36    
Moisture  
Dew Point 23 °F    
Average Humidity 77    
Maximum Humidity 86    
Minimum Humidity 69    
Precipitation  
Precipitation 0.00 in - - ()
Sea Level Pressure  
Sea Level Pressure 30.16 in    
Wind  
Wind Speed 16 mph (North)    
Max Wind Speed 22 mph    
Max Gust Speed 30 mph    
Visibility 10 miles    
Events      
Averages and records for this station are not official NWS values.
T = Trace of Precipitation, MM = Missing Value Source: NWS Daily Summary

Daily Weather History Graph

Daily Weather History Graph

Search for Another Location

Airport:

Trip Planner

Search our weather history database for the weather conditions in past years. The results will help you decide how hot, cold, wet, or windy it might be!

Date:

Astronomy

Nov. 01, 2012 Rise Set
Actual Time 8:16 AM CDT 6:09 PM CDT
Civil Twilight 7:43 AM CDT 6:42 PM CDT
Nautical Twilight 7:06 AM CDT 7:19 PM CDT
Astronomical Twilight 6:29 AM CDT 7:55 PM CDT
Moon 7:56 PM CDT (11/1) 11:00 AM CDT (11/1)
Length of Visible Light 10h 58m
Length of Day
9h 53m
Waning Gibbous, 93% of the Moon is Illuminated
Nov 1
Waning Gibbous
Nov 6
Last Quarter
Nov 13
New
Nov 20
First Quarter
Nov 28
Full

Hourly Weather History & Observations

Time (CDT) Temp. Windchill Dew Point Humidity Pressure Visibility Wind Dir Wind Speed Gust Speed Precip Events Conditions
12:15 AM 32.0 °F 19.8 °F 26.6 °F 80% 30.12 in 10.0 mi North 20.7 mph 27.6 mph N/A   Mostly Cloudy
12:35 AM 32.0 °F 19.5 °F 26.6 °F 80% 30.12 in 10.0 mi North 21.9 mph 29.9 mph N/A   Mostly Cloudy
12:55 AM 32.0 °F 20.5 °F 26.6 °F 80% 30.13 in 10.0 mi NNW 18.4 mph 28.8 mph N/A   Mostly Cloudy
1:15 AM 32.0 °F 20.1 °F 26.6 °F 80% 30.13 in 10.0 mi North 19.6 mph 26.5 mph N/A   Overcast
1:35 AM 32.0 °F 20.5 °F 26.6 °F 80% 30.13 in 10.0 mi NNW 18.4 mph 25.3 mph N/A   Overcast
2:15 AM 30.2 °F 19.3 °F 26.6 °F 86% 30.14 in 10.0 mi NNW 15.0 mph - N/A   Overcast
2:35 AM 30.2 °F 18.5 °F 24.8 °F 80% 30.14 in 10.0 mi NNW 17.3 mph - N/A   Overcast
2:55 AM 30.2 °F 18.9 °F 24.8 °F 80% 30.15 in 10.0 mi NNW 16.1 mph 21.9 mph N/A   Overcast
3:15 AM 30.2 °F 19.3 °F 24.8 °F 80% 30.15 in 10.0 mi NNW 15.0 mph - N/A   Mostly Cloudy
3:35 AM 30.2 °F 18.1 °F 24.8 °F 80% 30.15 in 10.0 mi NNW 18.4 mph 21.9 mph N/A   Overcast
3:55 AM 30.2 °F 18.9 °F 24.8 °F 80% 30.15 in 10.0 mi NNW 16.1 mph 24.2 mph N/A   Overcast
4:15 AM 30.2 °F 19.8 °F 23.0 °F 75% 30.15 in 10.0 mi NNW 13.8 mph 18.4 mph N/A   Overcast
4:35 AM 28.4 °F 16.2 °F 23.0 °F 80% 30.15 in 10.0 mi NNW 17.3 mph 23.0 mph N/A   Overcast
5:15 AM 28.4 °F 15.1 °F 21.2 °F 74% 30.16 in 10.0 mi North 20.7 mph 26.5 mph N/A   Overcast
5:35 AM 28.4 °F 15.8 °F 21.2 °F 74% 30.17 in 10.0 mi North 18.4 mph 21.9 mph N/A   Overcast
5:55 AM 28.4 °F 15.8 °F 21.2 °F 74% 30.17 in 10.0 mi North 18.4 mph 24.2 mph N/A   Overcast
6:15 AM 28.4 °F 16.2 °F 19.4 °F 69% 30.18 in 10.0 mi North 17.3 mph 21.9 mph N/A   Overcast
6:35 AM 28.4 °F 16.6 °F 19.4 °F 69% 30.18 in 10.0 mi North 16.1 mph 23.0 mph N/A   Overcast
6:55 AM 28.4 °F 16.2 °F 19.4 °F 69% 30.17 in 10.0 mi North 17.3 mph 20.7 mph N/A   Overcast
7:15 AM 26.6 °F 13.8 °F 21.2 °F 80% 30.17 in 10.0 mi North 17.3 mph 24.2 mph N/A   Overcast
7:35 AM 26.6 °F 13.1 °F 19.4 °F 74% 30.17 in 10.0 mi North 19.6 mph 27.6 mph N/A   Overcast
8:35 AM 26.6 °F 13.8 °F 19.4 °F 74% 30.19 in 10.0 mi North 17.3 mph 25.3 mph N/A   Overcast
8:55 AM 26.6 °F 13.8 °F 19.4 °F 74% 30.18 in 10.0 mi North 17.3 mph 21.9 mph N/A   Overcast
9:15 AM 26.6 °F 13.8 °F 19.4 °F 74% 30.18 in 10.0 mi North 17.3 mph 20.7 mph N/A   Overcast
9:35 AM 26.6 °F 14.3 °F 19.4 °F 74% 30.18 in 10.0 mi North 16.1 mph 23.0 mph N/A   Overcast
10:15 AM 26.6 °F 13.8 °F 19.4 °F 74% 30.20 in 10.0 mi North 17.3 mph 25.3 mph N/A   Overcast
10:35 AM 26.6 °F 14.7 °F 19.4 °F 74% 30.19 in 10.0 mi North 15.0 mph 20.7 mph N/A   Overcast
10:55 AM 26.6 °F 14.7 °F 19.4 °F 74% 30.19 in 10.0 mi North 15.0 mph - N/A   Overcast
11:15 AM 26.6 °F 14.7 °F 21.2 °F 80% 30.20 in 10.0 mi North 15.0 mph 19.6 mph N/A   Overcast
11:35 AM 26.6 °F 14.3 °F 19.4 °F 74% 30.20 in 10.0 mi North 16.1 mph 20.7 mph N/A   Overcast
11:55 AM 26.6 °F 14.7 °F 21.2 °F 80% 30.19 in 10.0 mi North 15.0 mph - N/A   Overcast
12:15 PM 28.4 °F 19.1 °F 21.2 °F 74% 30.19 in 10.0 mi North 10.4 mph 20.7 mph N/A   Overcast
12:35 PM 28.4 °F 18.5 °F 21.2 °F 74% 30.18 in 10.0 mi North 11.5 mph 19.6 mph N/A   Overcast
1:15 PM 28.4 °F 16.6 °F 21.2 °F 74% 30.18 in 10.0 mi NNW 16.1 mph - N/A   Overcast
1:35 PM 28.4 °F 17.5 °F 23.0 °F 80% 30.16 in 10.0 mi North 13.8 mph - N/A   Overcast
1:55 PM 28.4 °F 18.0 °F 21.2 °F 74% 30.15 in 10.0 mi NNW 12.7 mph - N/A   Overcast
2:15 PM 30.2 °F 21.9 °F 23.0 °F 75% 30.15 in 10.0 mi NNW 9.2 mph - N/A   Overcast
2:35 PM 30.2 °F 20.2 °F 23.0 °F 75% 30.15 in 10.0 mi NNW 12.7 mph - N/A   Overcast
2:55 PM 30.2 °F 21.9 °F 23.0 °F 75% 30.16 in 10.0 mi North 9.2 mph - N/A   Overcast
3:35 PM 32.0 °F 22.1 °F 23.0 °F 69% 30.15 in 10.0 mi North 13.8 mph - N/A   Overcast
3:55 PM 32.0 °F 22.5 °F 23.0 °F 69% 30.15 in 10.0 mi North 12.7 mph - N/A   Overcast
4:15 PM 32.0 °F 22.1 °F 23.0 °F 69% 30.15 in 10.0 mi North 13.8 mph 17.3 mph N/A   Overcast
4:35 PM 32.0 °F 23.0 °F 23.0 °F 69% 30.15 in 10.0 mi North 11.5 mph - N/A   Overcast
4:55 PM 30.2 °F 20.2 °F 23.0 °F 75% 30.15 in 10.0 mi North 12.7 mph - N/A   Overcast
5:15 PM 30.2 °F 20.8 °F 23.0 °F 75% 30.15 in 10.0 mi NNE 11.5 mph - N/A   Overcast
5:35 PM 30.2 °F 20.8 °F 23.0 °F 75% 30.16 in 10.0 mi North 11.5 mph - N/A   Overcast
5:55 PM 30.2 °F 20.8 °F 23.0 °F 75% 30.15 in 10.0 mi NNE 11.5 mph - N/A   Overcast
6:15 PM 30.2 °F 21.9 °F 23.0 °F 75% 30.16 in 10.0 mi NNE 9.2 mph - N/A   Overcast
6:35 PM 30.2 °F 20.8 °F 23.0 °F 75% 30.16 in 10.0 mi NNE 11.5 mph - N/A   Overcast
6:55 PM 30.2 °F 21.9 °F 23.0 °F 75% 30.16 in 10.0 mi NNE 9.2 mph - N/A   Overcast
7:15 PM 30.2 °F 20.2 °F 23.0 °F 75% 30.16 in 10.0 mi NNE 12.7 mph - N/A   Overcast
7:35 PM 28.4 °F 19.7 °F 23.0 °F 80% 30.16 in 10.0 mi North 9.2 mph - N/A   Overcast
7:55 PM 28.4 °F 20.4 °F 23.0 °F 80% 30.16 in 10.0 mi NNE 8.1 mph - N/A   Overcast
8:15 PM 30.2 °F 20.8 °F 23.0 °F 75% 30.16 in 10.0 mi NNE 11.5 mph - N/A   Overcast
8:35 PM 28.4 °F 18.0 °F 23.0 °F 80% 30.16 in 10.0 mi NNE 12.7 mph - N/A   Overcast
8:55 PM 28.4 °F 17.5 °F 23.0 °F 80% 30.16 in 10.0 mi NNE 13.8 mph - N/A   Overcast
9:15 PM 28.4 °F 19.1 °F 23.0 °F 80% 30.16 in 10.0 mi NNE 10.4 mph - N/A   Overcast
9:35 PM 28.4 °F 18.0 °F 23.0 °F 80% 30.16 in 10.0 mi NNE 12.7 mph - N/A   Overcast
9:55 PM 28.4 °F 17.5 °F 24.8 °F 86% 30.15 in 10.0 mi NE 13.8 mph - N/A   Overcast
10:15 PM 28.4 °F 18.5 °F 24.8 °F 86% 30.15 in 10.0 mi NE 11.5 mph - N/A   Overcast
10:35 PM 28.4 °F 18.0 °F 24.8 °F 86% 30.15 in 10.0 mi ENE 12.7 mph - N/A   Overcast
10:55 PM 28.4 °F 18.0 °F 24.8 °F 86% 30.15 in 10.0 mi NE 12.7 mph - N/A   Overcast
11:15 PM 26.6 °F 16.2 °F 23.0 °F 86% 30.15 in 10.0 mi ENE 11.5 mph - N/A   Overcast
11:35 PM 26.6 °F 17.5 °F 23.0 °F 86% 30.16 in 10.0 mi NE 9.2 mph - N/A   Overcast
11:55 PM 26.6 °F 20.0 °F 23.0 °F 86% 30.17 in 10.0 mi NE 5.8 mph - N/A   Overcast